Flag for U.S.A. Weather past 2 weeks in Chicago, Illinois, U.S.A.

Now
56 °F

Overcast.


Feels Like: 54 °F
Forecast: 53 / 62 °F
Wind: 7 mph from Southwest

Location: Chicago Midway Airport

Current Time: Oct 24, 2014 at 3:09:37 AM

Latest Report: Oct 24, 2014 at 12:53 AM


Visibility: 10 mi

Pressure: 30.05 "Hg

Humidity: 65%

Dew point: 44 °F

Location of ChicagoLocation

Historic Weather in Chicago — Graph

°F

Chicago temperature yesterday

Maximum temperature yesterday: 62 °F (at 1:53 PM)
Minimum temperature yesterday: 42 °F (at 4:53 AM)
Average temperature yesterday: 52 °F

Past Weeks' High & Low Weather Summary

 TemperatureHumidityPressure
High71 °F (Oct 13, 4:53 PM)97% (Oct 16, 2:53 AM)30.38 "Hg (Oct 16, 2:53 AM)
Low35 °F (Oct 12, 12:53 PM)33% (Oct 11, 1:53 PM)29.43 "Hg (Oct 14, 9:53 AM)
Average54 °F73%29.97 "Hg
* Reported Oct 9 12:53 AM — Oct 24 12:53 AM, Chicago, Weather by CustomWeather, © 2014

Note: Actual official high and low records may vary slightly from our data, if they occured in-between our weather recording intervals... More about our weather records

Advertising

Chicago weather history for previous 24 hours

 ConditionsComfort  
Time TempWeatherWind HumidityBarometerVisibility
12:53 AM
Oct 24
56 °FOvercast.7 mph65%30.05 "Hg10 mi
11:53 PM
Oct 23
56 °FOvercast.8 mph62%30.06 "Hg10 mi
10:53 PM57 °FOvercast.6 mph60%30.07 "Hg10 mi
9:53 PM57 °FOvercast.8 mph58%30.08 "Hg10 mi
8:53 PM57 °FMostly cloudy.8 mph58%30.09 "Hg10 mi
7:53 PM58 °FMostly cloudy.8 mph54%30.09 "Hg10 mi
6:53 PM58 °FMostly cloudy.5 mph51%30.08 "Hg10 mi
5:53 PM59 °FBroken clouds.9 mph51%30.07 "Hg10 mi
4:53 PM60 °FCloudy.9 mph49%30.09 "Hg10 mi
3:53 PM60 °FMostly cloudy.12 mph47%30.09 "Hg10 mi
2:53 PM61 °FPartly sunny.13 mph48%30.12 "Hg10 mi
1:53 PM62 °FPartly sunny.9 mph46%30.12 "Hg10 mi
12:53 PM60 °FScattered clouds.9 mph49%30.16 "Hg10 mi
11:53 AM58 °FScattered clouds.13 mph58%30.19 "Hg10 mi
10:53 AM56 °FPartly sunny.12 mph62%30.21 "Hg10 mi
9:53 AM51 °FPartly sunny.10 mph71%30.22 "Hg10 mi
8:53 AM45 °FPartly sunny.7 mph82%30.24 "Hg9 mi
7:53 AM42 °FPassing clouds.7 mph89%30.24 "Hg7 mi
6:53 AM42 °FPassing clouds.7 mph85%30.23 "Hg7 mi
5:53 AM42 °FFog.7 mph85%30.24 "Hg5 mi
4:53 AM42 °FPassing clouds.7 mph85%30.24 "Hg8 mi
3:53 AM43 °FClear.7 mph82%30.24 "Hg8 mi
Weather by CustomWeather, © 2014

See weather overviewHow to use our weather pages